TimeMST,TemperatureF,Dew PointF,Humidity,Sea Level PressureIn,VisibilityMPH,Wind Direction,Wind SpeedMPH,Gust SpeedMPH,PrecipitationIn,Events,Conditions,WindDirDegrees,DateUTC
12:55 AM,42.3,29.7,61,29.93,10.0,WNW,8.1,-,N/A,,Overcast,300,2012-11-17 07:55:00
1:55 AM,40.8,29.8,65,29.94,10.0,SW,8.1,-,N/A,,Overcast,220,2012-11-17 08:55:00
2:55 AM,43.2,26.4,52,29.94,10.0,SW,8.1,-,N/A,,Overcast,230,2012-11-17 09:55:00
3:55 AM,46.0,26.1,46,29.91,10.0,South,13.8,-,N/A,,Overcast,190,2012-11-17 10:55:00
4:55 AM,45.1,26.1,47,29.95,10.0,SSW,5.8,-,N/A,,Mostly Cloudy,200,2012-11-17 11:55:00
5:55 AM,40.1,24.8,54,29.97,10.0,North,8.1,-,N/A,,Clear,350,2012-11-17 12:55:00
6:55 AM,38.1,27.0,64,30.01,10.0,North,9.2,-,N/A,,Clear,10,2012-11-17 13:55:00
7:55 AM,39.2,27.3,62,30.04,10.0,Calm,Calm,-,N/A,,Clear,0,2012-11-17 14:55:00
8:55 AM,46.2,26.8,47,30.03,10.0,NNW,12.7,-,N/A,,Clear,330,2012-11-17 15:55:00
9:55 AM,51.8,27.9,40,30.02,10.0,NNW,11.5,-,N/A,,Clear,330,2012-11-17 16:55:00
10:55 AM,55.8,27.1,33,30.01,10.0,North,13.8,-,N/A,,Clear,350,2012-11-17 17:55:00
11:55 AM,57.9,26.8,30,29.99,10.0,North,13.8,-,N/A,,Clear,350,2012-11-17 18:55:00
12:55 PM,58.3,27.1,30,29.97,10.0,North,17.3,-,N/A,,Clear,360,2012-11-17 19:55:00
1:55 PM,59.2,26.2,28,29.98,10.0,North,13.8,-,N/A,,Clear,360,2012-11-17 20:55:00
2:55 PM,58.6,25.9,29,29.99,10.0,NNE,8.1,-,N/A,,Clear,20,2012-11-17 21:55:00
3:55 PM,55.0,27.7,35,30.00,10.0,East,3.5,-,N/A,,Clear,90,2012-11-17 22:55:00
4:55 PM,49.5,26.6,41,30.01,10.0,Calm,Calm,-,N/A,,Clear,0,2012-11-17 23:55:00
5:55 PM,44.2,26.1,49,30.04,10.0,Calm,Calm,-,N/A,,Clear,0,2012-11-18 00:55:00
6:55 PM,39.7,25.9,58,30.05,10.0,WSW,5.8,-,N/A,,Clear,250,2012-11-18 01:55:00
7:55 PM,34.5,24.6,67,30.05,10.0,West,8.1,-,N/A,,Clear,270,2012-11-18 02:55:00
8:55 PM,36.9,24.3,60,30.03,10.0,West,5.8,-,N/A,,Clear,270,2012-11-18 03:55:00
9:55 PM,36.9,25.2,63,30.00,10.0,WSW,8.1,-,N/A,,Clear,240,2012-11-18 04:55:00
10:55 PM,35.8,24.6,64,29.99,10.0,WSW,6.9,-,N/A,,Clear,250,2012-11-18 05:55:00
11:55 PM,37.2,24.8,61,29.96,10.0,SSW,4.6,-,N/A,,Clear,200,2012-11-18 06:55:00